This demonstration page uses our WeatherBlox Daily Observations layout. Learn more.

Left ArrowRight Arrow

39.92423, -83.80882

Hourly Observations for December 3, 2015

Temp ( °F °C ) Dew Point ( °F °C ) Humidity (%) Winds ( mph kmh ) Pressure ( in mb ) Visibility ( mi km ) Precip ( " mm )
12:34 am 00:34 Cloudy 34 1 32 0 93 93 W 12 19 30.06 1018 10 16.0934 0 0
12:56 am 00:56 Cloudy 33 0.5 31 -0.5 93 93 W 13 20 30.03 1017 10 16.0934 0 0
1:56 am 01:56 Cloudy 33 0.5 28 -2.2 82 82 W 13 20 30.05 1018 10 16.0934 0 0
2:56 am 02:56 Mostly Cloudy 32 0 29 -1.6 89 89 W 14 22 30.09 1019 10 16.0934 0 0
3:39 am 03:39 Partly Cloudy 30 -1 27 -3 86 86 W 9 15 30.12 1020 10 16.0934 0 0
3:56 am 03:56 Clear 30 -1.1 27 -2.7 89 89 W 8 13 30.1 1019 10 16.0934 0 0
4:56 am 04:56 Cloudy 32 0 29 -1.6 89 89 WSW 10 17 30.13 1020 10 16.0934 0 0
5:49 am 05:49 Cloudy 30 -1 28 -2 93 93 WSW 14 22 30.18 1022 10 16.0934 0 0
5:56 am 05:56 Cloudy 31 -0.5 29 -1.6 92 92 WSW 12 19 30.16 1022 10 16.0934 0 0
6:56 am 06:56 Cloudy 31 -0.5 29 -1.6 92 92 W 8 13 30.21 1023 10 16.0934 0 0
7:03 am 07:03 Cloudy 30 -1 28 -2 93 93 W 10 17 30.24 1024 10 16.0934 0 0
7:56 am 07:56 Cloudy 32 0 29 -1.6 89 89 W 9 15 30.23 1024 10 16.0934 0 0
8:33 am 08:33 Cloudy 32 0 30 -1 93 93 W 10 17 30.27 1025 10 16.0934 0 0
8:56 am 08:56 Cloudy 33 0.5 30 -1.1 89 89 W 9 15 30.26 1025 10 16.0934 0 0
9:56 am 09:56 Cloudy 34 1.1 31 -0.5 89 89 W 9 15 30.29 1026 10 16.0934 0 0
10:22 am 10:22 Cloudy 34 1 32 0 93 93 W 7 11 30.33 1027 10 16.0934 0 0
10:56 am 10:56 Cloudy 35 1.6 32 0 89 89 W 9 15 30.32 1027 10 16.0934 0 0
11:24 am 11:24 Cloudy 36 2 32 0 87 87 W 10 17 30.36 1028 10 16.0934 0 0
11:56 am 11:56 Cloudy 36 2.2 32 0 86 86 WNW 9 15 30.33 1027 10 16.0934 0 0
12:48 pm 12:48 Cloudy 37 3 32 0 81 81 W 8 13 30.36 1028 10 16.0934 0 0
12:56 pm 12:56 Cloudy 37 2.7 32 0 83 83 W 8 13 30.33 1027 10 16.0934 0 0
1:56 pm 13:56 Cloudy 37 2.7 33 0.5 86 86 W 7 11 30.34 1027 10 16.0934 0 0
2:56 pm 14:56 Cloudy 38 3.3 34 1.1 86 86 WSW 8 13 30.35 1028 10 16.0934 0 0
3:56 pm 15:56 Cloudy 38 3.3 35 1.6 89 89 WSW 8 13 30.37 1028 10 16.0934 0 0
4:48 pm 16:48 Cloudy 37 3 36 2 93 93 WSW 7 11 30.39 1029 10 16.0934 0 0
4:56 pm 16:56 Cloudy 38 3.3 35 1.6 89 89 SW 7 11 30.38 1029 10 16.0934 0 0
5:34 pm 17:34 Cloudy 37 3 34 1 87 87 WSW 9 15 30.39 1029 10 16.0934 0 0
5:56 pm 17:56 Cloudy 38 3.3 33 0.5 82 82 WSW 9 15 30.4 1029 10 16.0934 0 0
6:56 pm 18:56 Cloudy 38 3.3 32 0 79 79 WSW 7 11 30.42 1030 10 16.0934 0 0
7:56 pm 19:56 Cloudy 37 2.7 32 0 83 83 WNW 8 13 30.44 1031 10 16.0934 0 0
8:56 pm 20:56 Cloudy 35 1.6 31 -0.5 86 86 W 7 11 30.45 1031 10 16.0934 0 0
9:56 pm 21:56 Mostly Cloudy 32 0 30 -1.1 92 92 WSW 7 11 30.47 1032 10 16.0934 0 0
10:04 pm 22:04 Mostly Clear 32 0 30 -1 93 93 WSW 6 9 30.45 1031 10 16.0934 0 0
10:56 pm 22:56 Partly Cloudy 31 -0.5 29 -1.6 92 92 SW 5 7 30.47 1032 10 16.0934 0 0
11:56 pm 23:56 Clear 31 -0.5 29 -1.6 92 92 SSW 5 7 30.48 1032 10 16.0934 0 0

Powered by AerisWeather